Location: Fort Hays State University
(38.8712°N, 99.3432°W)
Time: 18:06:04
(UTC-05:00)

Cosmos 2279 Rocket - Visible Passes

Search period start: 04 May 2016 00:00
Search period end: 14 May 2016 00:00
Orbit: 963 x 980 km, 82.9° (Epoch: 03 May)

Date Brightness Start Highest point End Pass type
(mag) Time Alt. Az. Time Alt. Az. Time Alt. Az.
04 May 6.3 00:24:31 10° NE 00:25:52 11° ENE 00:26:13 11° ENE visible
04 May 4.5 02:05:56 10° N 02:10:48 57° N 02:10:48 57° N visible
04 May 6.0 03:53:50 10° NW 03:55:23 13° WNW 03:55:23 13° WNW visible
05 May 5.8 00:46:15 10° NNE 00:50:23 20° ENE 00:50:23 20° ENE visible
05 May 4.7 02:30:22 10° NNW 02:34:58 46° NW 02:34:58 46° NW visible
06 May 5.1 01:09:44 10° N 01:14:33 35° ENE 01:14:33 35° ENE visible
06 May 5.3 02:55:12 10° NNW 02:59:08 28° WNW 02:59:08 28° WNW visible
07 May 4.5 01:33:43 10° N 01:38:44 54° NNE 01:38:44 54° NNE visible
07 May 5.8 03:20:44 10° NW 03:23:19 16° WNW 03:23:19 16° WNW visible
08 May 5.9 00:14:35 10° NNE 00:18:20 16° ENE 00:18:20 16° ENE visible
08 May 4.5 01:58:04 10° NNW 02:02:56 55° NNW 02:02:56 55° NNW visible
09 May 5.3 00:37:45 10° NNE 00:42:33 29° ENE 00:42:33 29° ENE visible
09 May 5.0 02:22:44 10° NNW 02:27:08 35° WNW 02:27:08 35° WNW visible
10 May 4.6 01:01:35 10° N 01:06:46 49° NE 01:06:46 49° NE visible
10 May 5.6 02:47:55 10° NW 02:51:21 21° WNW 02:51:21 21° WNW visible
10 May 6.0 23:43:12 10° NE 23:45:54 13° ENE 23:46:24 13° ENE visible
11 May 4.2 01:25:47 10° N 01:30:59 64° N 01:30:59 64° N visible
11 May 6.2 03:14:46 10° WNW 03:15:35 11° WNW 03:15:35 11° WNW visible
12 May 5.4 00:05:49 10° NNE 00:10:38 24° ENE 00:10:38 24° ENE visible
12 May 4.7 01:50:19 10° NNW 01:55:13 44° WNW 01:55:13 44° WNW visible
13 May 4.7 00:29:28 10° N 00:34:53 41° ENE 00:34:53 41° ENE visible
13 May 5.4 02:15:18 10° NNW 02:19:28 26° WNW 02:19:28 26° WNW visible
